| time (UTC) | temp F | wind direction | speed MPH | gust MPH | rain 1hr in | rain 24hr in | rain mn in | humidity % | barometer mb |
| 20260505070138 | 66 | 155 | 4.0 | 6.0 | 0.00 | 0.00 | 0.00 | 79 | 1006.2 |
| 20260505065633 | 66 | 167 | 3.0 | 4.0 | 0.00 | 0.00 | 0.00 | 79 | 1006.3 |
| 20260505065130 | 67 | 154 | 3.0 | 6.0 | 0.00 | 0.00 | 0.00 | 78 | 1006.1 |
| 20260505064627 | 67 | 163 | 5.0 | 7.0 | 0.00 | 0.00 | 0.00 | 78 | 1006.4 |
| 20260505064126 | 67 | 139 | 2.0 | 4.0 | 0.00 | 0.00 | 0.00 | 78 | 1006.4 |
| 20260505063623 | 67 | 124 | 4.0 | 8.0 | 0.00 | 0.00 | 0.00 | 77 | 1006.3 |
| 20260505063118 | 67 | 143 | 4.0 | 6.0 | 0.00 | 0.00 | 0.00 | 77 | 1006.2 |
| 20260505062615 | 67 | 166 | 7.0 | 8.0 | 0.00 | 0.00 | 0.00 | 77 | 1006.5 |
| 20260505062113 | 67 | 170 | 3.0 | 7.0 | 0.00 | 0.00 | 0.00 | 76 | 1006.5 |
| 20260505061609 | 67 | 162 | 4.0 | 7.0 | 0.00 | 0.00 | 0.00 | 76 | 1006.5 |
| 20260505061108 | 67 | 167 | 3.0 | 6.0 | 0.00 | 0.00 | 0.00 | 76 | 1006.6 |
| 20260505060605 | 67 | 145 | 3.0 | 4.0 | 0.00 | 0.00 | 0.00 | 76 | 1006.8 |
| 20260505055557 | 67 | 179 | 2.0 | 6.0 | 0.00 | 0.00 | 0.00 | 75 | 1007.0 |
| 20260505055054 | 68 | 154 | 1.0 | 3.0 | 0.00 | 0.00 | 0.00 | 74 | 1007.0 |
| 20260505054551 | 68 | 52 | 2.0 | 6.0 | 0.00 | 0.00 | 0.00 | 74 | 1007.1 |
| 20260505054049 | 68 | 138 | 0.0 | 7.0 | 0.00 | 0.00 | 0.00 | 74 | 1007.0 |
| 20260505053546 | 68 | 155 | 2.0 | 6.0 | 0.00 | 0.00 | 0.00 | 73 | 1007.2 |
| 20260505053042 | 68 | 157 | 7.0 | 8.0 | 0.00 | 0.00 | 0.00 | 73 | 1006.9 |
| 20260505052539 | 68 | 174 | 0.0 | 1.0 | 0.00 | 0.00 | 0.00 | 73 | 1006.9 |
| 20260505052037 | 68 | 167 | 4.0 | 4.0 | 0.00 | 0.00 | 0.00 | 72 | 1007.0 |
| 20260505051534 | 68 | 151 | 1.0 | 6.0 | 0.00 | 0.00 | 0.00 | 72 | 1007.0 |
| 20260505051032 | 68 | 168 | 2.0 | 4.0 | 0.00 | 0.00 | 0.00 | 71 | 1007.2 |
| 20260505050530 | 68 | 172 | 4.0 | 6.0 | 0.00 | 0.00 | 0.00 | 71 | 1007.2 |
| 20260505041457 | 68 | 110 | 3.0 | 6.0 | 0.00 | 0.00 | 0.00 | 67 | 1007.5 |
| 20260505040955 | 68 | 158 | 3.0 | 4.0 | 0.00 | 0.00 | 0.00 | 67 | 1007.4 |
| 20260505040452 | 68 | 154 | 2.0 | 4.0 | 0.00 | 0.00 | 0.00 | 66 | 1007.6 |
| 20260505035949 | 68 | 161 | 0.0 | 3.0 | 0.00 | 0.00 | 0.00 | 66 | 1007.6 |
| 20260505035445 | 68 | 172 | 1.0 | 4.0 | 0.00 | 0.00 | 0.00 | 66 | 1007.6 |
| 20260505034942 | 68 | 186 | 1.0 | 2.0 | 0.00 | 0.00 | 0.00 | 65 | 1007.6 |
| 20260505034438 | 68 | 135 | 3.0 | 3.0 | 0.00 | 0.00 | 0.00 | 65 | 1007.6 |
| 20260505033936 | 69 | 164 | 2.0 | 3.0 | 0.00 | 0.00 | 0.00 | 65 | 1007.5 |
| 20260505033432 | 69 | 184 | 2.0 | 4.0 | 0.00 | 0.00 | 0.00 | 64 | 1007.6 |
| 20260505032931 | 69 | 140 | 1.0 | 2.0 | 0.00 | 0.00 | 0.00 | 64 | 1007.6 |
| 20260505032427 | 69 | 165 | 0.0 | 2.0 | 0.00 | 0.00 | 0.00 | 64 | 1007.6 |
| 20260505031924 | 69 | 165 | 3.0 | 3.0 | 0.00 | 0.00 | 0.00 | 64 | 1007.5 |
| 20260505031421 | 69 | 141 | 2.0 | 6.0 | 0.00 | 0.00 | 0.00 | 64 | 1007.4 |
| 20260505030918 | 69 | 159 | 2.0 | 3.0 | 0.00 | 0.00 | 0.00 | 64 | 1007.5 |
| 20260505030413 | 69 | 174 | 3.0 | 4.0 | 0.00 | 0.00 | 0.00 | 64 | 1007.5 |
| 20260505025909 | 69 | 130 | 5.0 | 6.0 | 0.00 | 0.00 | 0.00 | 64 | 1007.3 |
| 20260505025407 | 69 | 164 | 0.0 | 3.0 | 0.00 | 0.00 | 0.00 | 64 | 1007.3 |
| 20260505024906 | 69 | 134 | 2.0 | 3.0 | 0.00 | 0.00 | 0.00 | 64 | 1007.5 |
| 20260505024403 | 69 | 131 | 2.0 | 3.0 | 0.00 | 0.00 | 0.00 | 64 | 1007.4 |
| 20260505023859 | 69 | 135 | 2.0 | 2.0 | 0.00 | 0.00 | 0.00 | 64 | 1007.5 |
| 20260505023357 | 69 | 147 | 0.0 | 0.0 | 0.00 | 0.00 | 0.00 | 64 | 1007.5 |
| 20260505022854 | 69 | 138 | 0.0 | 1.0 | 0.00 | 0.00 | 0.00 | 64 | 1007.4 |
| 20260505022351 | 69 | 167 | 0.0 | 2.0 | 0.00 | 0.00 | 0.00 | 64 | 1007.1 |
| 20260505021848 | 70 | 153 | 0.0 | 3.0 | 0.00 | 0.00 | 0.00 | 63 | 1007.4 |
| 20260505021344 | 70 | 152 | 0.0 | 0.0 | 0.00 | 0.00 | 0.00 | 63 | 1007.3 |
| 20260505020840 | 70 | 176 | 0.0 | 3.0 | 0.00 | 0.00 | 0.00 | 63 | 1007.4 |
| 20260505020336 | 70 | 176 | 0.0 | 1.0 | 0.00 | 0.00 | 0.00 | 63 | 1007.1 |
| 20260505015833 | 70 | 181 | 0.0 | 2.0 | 0.00 | 0.00 | 0.00 | 63 | 1007.2 |
| 20260505015330 | 70 | 171 | 0.0 | 0.0 | 0.00 | 0.00 | 0.00 | 62 | 1007.1 |
| 20260505014827 | 71 | 158 | 1.0 | 2.0 | 0.00 | 0.00 | 0.00 | 62 | 1007.3 |
| 20260505014324 | 71 | 154 | 0.0 | 1.0 | 0.00 | 0.00 | 0.00 | 62 | 1006.8 |
| 20260505013821 | 71 | 157 | 1.0 | 2.0 | 0.00 | 0.00 | 0.00 | 61 | 1007.0 |
| 20260505013318 | 71 | 164 | 0.0 | 1.0 | 0.00 | 0.00 | 0.00 | 61 | 1007.0 |
| 20260505012817 | 72 | 167 | 0.0 | 0.0 | 0.00 | 0.00 | 0.00 | 60 | 1006.9 |
| 20260505012314 | 72 | 155 | 0.0 | 2.0 | 0.00 | 0.00 | 0.00 | 60 | 1006.9 |
| 20260505011809 | 72 | 164 | 0.0 | 2.0 | 0.00 | 0.00 | 0.00 | 60 | 1006.8 |
| 20260505011307 | 72 | 140 | 1.0 | 2.0 | 0.00 | 0.00 | 0.00 | 60 | 1006.9 |
| 20260505010802 | 72 | 153 | 1.0 | 2.0 | 0.00 | 0.00 | 0.00 | 59 | 1006.8 |
| 20260505010259 | 73 | 184 | 1.0 | 2.0 | 0.00 | 0.00 | 0.00 | 59 | 1006.9 |
| 20260505005755 | 73 | 146 | 2.0 | 2.0 | 0.00 | 0.00 | 0.00 | 58 | 1006.9 |
| 20260505005252 | 73 | 125 | 1.0 | 3.0 | 0.00 | 0.00 | 0.00 | 58 | 1006.8 |
| 20260505004749 | 73 | 165 | 2.0 | 3.0 | 0.00 | 0.00 | 0.00 | 58 | 1006.8 |
| 20260505004245 | 74 | 145 | 2.0 | 2.0 | 0.00 | 0.00 | 0.00 | 57 | 1006.7 |
| 20260505003743 | 74 | 91 | 1.0 | 4.0 | 0.00 | 0.00 | 0.00 | 57 | 1007.0 |
| 20260505003241 | 75 | 168 | 1.0 | 4.0 | 0.00 | 0.00 | 0.00 | 57 | 1006.9 |
| 20260505002736 | 75 | 201 | 2.0 | 3.0 | 0.00 | 0.00 | 0.00 | 56 | 1006.8 |
| 20260505002234 | 75 | 193 | 3.0 | 7.0 | 0.00 | 0.00 | 0.00 | 56 | 1006.9 |
| 20260505001731 | 75 | 198 | 1.0 | 4.0 | 0.00 | 0.00 | 0.00 | 55 | 1007.0 |
| 20260505001229 | 76 | 161 | 4.0 | 9.0 | 0.00 | 0.00 | 0.00 | 55 | 1007.0 |
| 20260505000725 | 76 | 200 | 0.0 | 7.0 | 0.00 | 0.00 | 0.00 | 54 | 1007.2 |
| 20260505000226 | 76 | 195 | 6.0 | 7.0 | 0.00 | 0.00 | 0.00 | 54 | 1007.2 |
| 20260504235720 | 76 | 179 | 1.0 | 4.0 | 0.00 | 0.00 | 0.00 | 53 | 1007.0 |
| 20260504235216 | 77 | 9 | 4.0 | 7.0 | 0.00 | 0.00 | 0.00 | 52 | 1007.0 |
| 20260504234714 | 77 | 137 | 6.0 | 10.0 | 0.00 | 0.00 | 0.00 | 52 | 1007.0 |
| 20260504234211 | 77 | 157 | 4.0 | 7.0 | 0.00 | 0.00 | 0.00 | 52 | 1007.3 |
| 20260504233707 | 78 | 155 | 6.0 | 15.0 | 0.00 | 0.00 | 0.00 | 51 | 1007.5 |
| 20260504233203 | 78 | 120 | 7.0 | 11.0 | 0.00 | 0.00 | 0.00 | 51 | 1007.4 |
| 20260504232700 | 78 | 250 | 1.0 | 6.0 | 0.00 | 0.00 | 0.00 | 51 | 1007.3 |
| 20260504232157 | 78 | 228 | 14.0 | 16.0 | 0.00 | 0.00 | 0.00 | 50 | 1007.3 |
| 20260504231654 | 78 | 174 | 6.0 | 11.0 | 0.00 | 0.00 | 0.00 | 51 | 1007.2 |
| 20260504231150 | 78 | 215 | 0.0 | 11.0 | 0.00 | 0.00 | 0.00 | 51 | 1007.4 |
| 20260504230646 | 78 | 196 | 7.0 | 10.0 | 0.00 | 0.00 | 0.00 | 50 | 1007.4 |
| 20260504230145 | 78 | 196 | 6.0 | 15.0 | 0.00 | 0.00 | 0.00 | 49 | 1007.6 |
| 20260504225643 | 79 | 200 | 7.0 | 19.0 | 0.00 | 0.00 | 0.00 | 49 | 1007.6 |
| 20260504225139 | 79 | 164 | 7.0 | 11.0 | 0.00 | 0.00 | 0.00 | 49 | 1007.6 |
| 20260504224636 | 79 | 202 | 2.0 | 11.0 | 0.00 | 0.00 | 0.00 | 49 | 1007.6 |
| 20260504224132 | 79 | 153 | 5.0 | 8.0 | 0.00 | 0.00 | 0.00 | 49 | 1007.8 |
| 20260504223630 | 79 | 124 | 8.0 | 16.0 | 0.00 | 0.00 | 0.00 | 49 | 1007.8 |
| 20260504223126 | 79 | 207 | 4.0 | 8.0 | 0.00 | 0.00 | 0.00 | 50 | 1007.7 |
| 20260504222623 | 79 | 165 | 8.0 | 14.0 | 0.00 | 0.00 | 0.00 | 49 | 1008.0 |
| 20260504222120 | 79 | 126 | 4.0 | 9.0 | 0.00 | 0.00 | 0.00 | 49 | 1008.0 |
| 20260504221617 | 79 | 125 | 8.0 | 14.0 | 0.00 | 0.00 | 0.00 | 49 | 1008.1 |
| 20260504221114 | 79 | 164 | 6.0 | 10.0 | 0.00 | 0.00 | 0.00 | 49 | 1008.1 |
| 20260504220610 | 79 | 218 | 3.0 | 11.0 | 0.00 | 0.00 | 0.00 | 49 | 1008.2 |
| 20260504220108 | 79 | 177 | 11.0 | 13.0 | 0.00 | 0.00 | 0.00 | 49 | 1008.2 |
| 20260504215604 | 79 | 198 | 5.0 | 10.0 | 0.00 | 0.00 | 0.00 | 49 | 1008.3 |
| 20260504215102 | 80 | 99 | 6.0 | 13.0 | 0.00 | 0.00 | 0.00 | 49 | 1008.4 |
| 20260504214557 | 79 | 168 | 4.0 | 15.0 | 0.00 | 0.00 | 0.00 | 49 | 1008.3 |
| 20260504214054 | 79 | 166 | 9.0 | 13.0 | 0.00 | 0.00 | 0.00 | 49 | 1008.3 |
| 20260504213550 | 79 | 185 | 7.0 | 13.0 | 0.00 | 0.00 | 0.00 | 48 | 1008.5 |
| 20260504213047 | 79 | 117 | 4.0 | 11.0 | 0.00 | 0.00 | 0.00 | 49 | 1008.8 |
| 20260504212543 | 80 | 193 | 8.0 | 13.0 | 0.00 | 0.00 | 0.00 | 49 | 1008.8 |
| 20260504212041 | 80 | 220 | 0.0 | 11.0 | 0.00 | 0.00 | 0.00 | 50 | 1009.0 |
| 20260504211537 | 79 | 187 | 11.0 | 14.0 | 0.00 | 0.00 | 0.00 | 49 | 1009.0 |
| 20260504211034 | 80 | 144 | 6.0 | 16.0 | 0.00 | 0.00 | 0.00 | 49 | 1009.2 |
| 20260504210531 | 79 | 210 | 4.0 | 7.0 | 0.00 | 0.00 | 0.00 | 49 | 1009.1 |
| 20260504210028 | 79 | 157 | 12.0 | 14.0 | 0.00 | 0.00 | 0.00 | 48 | 1009.0 |
| 20260504205526 | 80 | 192 | 11.0 | 16.0 | 0.00 | 0.00 | 0.00 | 49 | 1009.4 |
| 20260504205024 | 80 | 119 | 5.0 | 11.0 | 0.00 | 0.00 | 0.00 | 48 | 1009.6 |
| 20260504204521 | 80 | 169 | 5.0 | 11.0 | 0.00 | 0.00 | 0.00 | 49 | 1009.8 |
| 20260504204020 | 80 | 168 | 6.0 | 9.0 | 0.00 | 0.00 | 0.00 | 48 | 1009.6 |
| 20260504203518 | 80 | 219 | 7.0 | 14.0 | 0.00 | 0.00 | 0.00 | 48 | 1009.7 |
| 20260504203015 | 80 | 204 | 6.0 | 17.0 | 0.00 | 0.00 | 0.00 | 48 | 1009.7 |
| 20260504202510 | 80 | 175 | 10.0 | 15.0 | 0.00 | 0.00 | 0.00 | 48 | 1010.2 |
| 20260504202008 | 79 | 164 | 6.0 | 9.0 | 0.00 | 0.00 | 0.00 | 49 | 1009.9 |
| 20260504201505 | 79 | 228 | 9.0 | 14.0 | 0.00 | 0.00 | 0.00 | 47 | 1010.0 |
| 20260504201002 | 80 | 188 | 5.0 | 13.0 | 0.00 | 0.00 | 0.00 | 48 | 1010.4 |
| 20260504200459 | 80 | 158 | 7.0 | 18.0 | 0.00 | 0.00 | 0.00 | 46 | 1010.3 |
| 20260504195955 | 80 | 159 | 8.0 | 11.0 | 0.00 | 0.00 | 0.00 | 48 | 1010.4 |
| 20260504195451 | 79 | 189 | 3.0 | 10.0 | 0.00 | 0.00 | 0.00 | 48 | 1010.7 |
| 20260504194948 | 79 | 166 | 6.0 | 13.0 | 0.00 | 0.00 | 0.00 | 49 | 1010.6 |
| 20260504194444 | 79 | 184 | 9.0 | 13.0 | 0.00 | 0.00 | 0.00 | 47 | 1010.8 |
| 20260504193940 | 79 | 179 | 6.0 | 10.0 | 0.00 | 0.00 | 0.00 | 48 | 1010.8 |
| 20260504193438 | 79 | 173 | 2.0 | 9.0 | 0.00 | 0.00 | 0.00 | 48 | 1010.9 |
| 20260504192936 | 79 | 123 | 7.0 | 11.0 | 0.00 | 0.00 | 0.00 | 48 | 1010.9 |
| 20260504192433 | 79 | 153 | 9.0 | 14.0 | 0.00 | 0.00 | 0.00 | 47 | 1011.2 |
| 20260504191932 | 79 | 209 | 1.0 | 11.0 | 0.00 | 0.00 | 0.00 | 48 | 1011.1 |
| 20260504191430 | 78 | 174 | 4.0 | 14.0 | 0.00 | 0.00 | 0.00 | 47 | 1011.2 |
| 20260504190930 | 78 | 208 | 5.0 | 18.0 | 0.00 | 0.00 | 0.00 | 47 | 1011.3 |
| 20260504190425 | 78 | 173 | 6.0 | 13.0 | 0.00 | 0.00 | 0.00 | 47 | 1011.6 |
| 20260504185923 | 79 | 184 | 6.0 | 13.0 | 0.00 | 0.00 | 0.00 | 47 | 1011.3 |
| 20260504185420 | 79 | 174 | 7.0 | 11.0 | 0.00 | 0.00 | 0.00 | 48 | 1011.3 |
| 20260504184915 | 78 | 193 | 5.0 | 16.0 | 0.00 | 0.00 | 0.00 | 48 | 1011.5 |
| 20260504184411 | 78 | 154 | 7.0 | 10.0 | 0.00 | 0.00 | 0.00 | 47 | 1011.4 |
| 20260504183908 | 78 | 170 | 8.0 | 9.0 | 0.00 | 0.00 | 0.00 | 48 | 1011.5 |
| 20260504183405 | 78 | 205 | 8.0 | 11.0 | 0.00 | 0.00 | 0.00 | 48 | 1011.8 |
| 20260504182903 | 78 | 190 | 11.0 | 15.0 | 0.00 | 0.00 | 0.00 | 47 | 1011.9 |
| 20260504182400 | 77 | 183 | 10.0 | 11.0 | 0.00 | 0.00 | 0.00 | 47 | 1011.9 |
| 20260504181856 | 78 | 163 | 8.0 | 16.0 | 0.00 | 0.00 | 0.00 | 48 | 1012.0 |
| 20260504181354 | 78 | 194 | 7.0 | 15.0 | 0.00 | 0.00 | 0.00 | 48 | 1012.1 |
| 20260504180853 | 78 | 148 | 7.0 | 13.0 | 0.00 | 0.00 | 0.00 | 49 | 1012.2 |
| 20260504180350 | 78 | 216 | 4.0 | 11.0 | 0.00 | 0.00 | 0.00 | 49 | 1012.2 |
| 20260504175848 | 77 | 140 | 2.0 | 14.0 | 0.00 | 0.00 | 0.00 | 49 | 1012.4 |
| 20260504175345 | 77 | 163 | 2.0 | 10.0 | 0.00 | 0.00 | 0.00 | 49 | 1012.5 |
| 20260504174843 | 77 | 184 | 5.0 | 15.0 | 0.00 | 0.00 | 0.00 | 49 | 1012.6 |
| 20260504174340 | 76 | 201 | 7.0 | 15.0 | 0.00 | 0.00 | 0.00 | 49 | 1012.8 |
| 20260504173837 | 77 | 163 | 7.0 | 14.0 | 0.00 | 0.00 | 0.00 | 49 | 1012.7 |
| 20260504173334 | 77 | 188 | 4.0 | 16.0 | 0.00 | 0.00 | 0.00 | 49 | 1012.8 |
| 20260504172831 | 77 | 163 | 4.0 | 10.0 | 0.00 | 0.00 | 0.00 | 50 | 1012.5 |
| 20260504172328 | 76 | 227 | 1.0 | 11.0 | 0.00 | 0.00 | 0.00 | 52 | 1013.0 |
| 20260504171823 | 76 | 181 | 11.0 | 14.0 | 0.00 | 0.00 | 0.00 | 50 | 1013.0 |
| 20260504171321 | 75 | 182 | 5.0 | 9.0 | 0.00 | 0.00 | 0.00 | 50 | 1012.9 |
| 20260504170818 | 75 | 152 | 6.0 | 16.0 | 0.00 | 0.00 | 0.00 | 49 | 1012.8 |
| 20260504170315 | 75 | 180 | 8.0 | 16.0 | 0.00 | 0.00 | 0.00 | 50 | 1013.0 |
| 20260504160233 | 74 | 193 | 5.0 | 16.0 | 0.00 | 0.00 | 0.00 | 54 | 1013.5 |
| 20260504150658 | 70 | 223 | 9.0 | 13.0 | 0.00 | 0.00 | 0.00 | 57 | 1013.6 |
| 20260504150155 | 71 | 236 | 9.0 | 16.0 | 0.00 | 0.00 | 0.00 | 57 | 1013.7 |
| 20260504141124 | 68 | 52 | 1.0 | 6.0 | 0.00 | 0.00 | 0.00 | 64 | 1013.9 |
| 20260504140621 | 68 | 207 | 7.0 | 11.0 | 0.00 | 0.00 | 0.00 | 64 | 1014.0 |
| 20260504140117 | 68 | 208 | 2.0 | 7.0 | 0.00 | 0.00 | 0.00 | 66 | 1013.9 |
| 20260504130545 | 62 | 190 | 1.0 | 6.0 | 0.00 | 0.00 | 0.00 | 74 | 1013.7 |
| 20260504110432 | 57 | 221 | 1.0 | 3.0 | 0.00 | 0.00 | 0.00 | 78 | 1013.2 |
| 20260504100355 | 58 | 204 | 2.0 | 4.0 | 0.00 | 0.00 | 0.00 | 76 | 1013.6 |
| 20260504081748 | 59 | 193 | 0.0 | 3.0 | 0.00 | 0.00 | 0.00 | 75 | 1013.7 |
| 20260504081245 | 59 | 163 | 0.0 | 3.0 | 0.00 | 0.00 | 0.00 | 75 | 1013.6 |
| 20260504080741 | 58 | 154 | 0.0 | 1.0 | 0.00 | 0.00 | 0.00 | 75 | 1013.7 |
| 20260504080237 | 58 | 166 | 0.0 | 0.0 | 0.00 | 0.00 | 0.00 | 75 | 1013.8 |